User: anonymous   Login
Location: Gollag?dem
(16.8053°N, 80.8024°E)
Time: 11:03:07
(UTC+00:00)
Language:

USA 281 - Orbit

View from above orbital plane
View from above orbital plane
View from above satellite
View from above satellite

Ground track
Ground track

The orbit data is extracted from the following two-line orbital elements,

1 43145U 18005A   20297.75666512 0.00000000  00000-0  00000-0 0    02
2 43145 106.0098 308.5997 0000567  19.6280 340.3720 13.48022424    07
Epoch (UTC): 23 October 2020 18:09:35
Eccentricity: 0.0000567
inclination: 106.0098°
perigee height: 1079 km
apogee height: 1080 km
right ascension of ascending node: 308.5997°
argument of perigee: 19.6280°
revolutions per day: 13.48022424
mean anomaly at epoch: 340.3720°
orbit number at epoch: 0

The dashed part of the orbit path shows where the satellite is in the earth's shadow,  

DLR